STARLINK U (44253 NORAD) Tracking and Keplerian Element Data

This shows tracking and keplerian element data for the satellite.

Feedback or suggestion? Click here.




ElementValue
Catalog44253
NameSTARLINK U
Epoch Orbit463
Epoch Day173.98037762
Epoch Year2019
RAAN38.1742
Inclination53.0058
Eccentricity0.0002694
Argument of Perigee129.2013
Mean Anonmoly230.9215
Mean Motion15.04722569
Decay Rate-0.00520721
L11 44253U 19029U 19173.98037762 -.00520721 00000-0 -38885-1 0 9994
L22 44253 53.0058 38.1742 0002694 129.2013 230.9215 15.04722569 4631

Live tracking and technical data element details for STARLINK U (NORAD 44253). STARLINK U can be tracked NOW for your location showing map with azimuth and elevation plus other details from your city location.

Track the satellite on the map from your city or location and see movement details for azimuth, elevation, latitude, longitude, range, height, and movement on the map or in text.







IsCatalogInMostPopularTable: catalog: 44253, numindb: 34
Update: records affected: 1



GetName: 44253 STARLINK U

Hit Count: updated at: Sun, 21 Jul 2019 21:01:06 GMT